User: anonymous   Login
Location: Mentone
(34.5413°N, 85.5351°W)
Time: 10:33:59
(UTC-05:00)
Language:

NOSS 2-2 (E) - Orbit

View from above orbital plane
View from above orbital plane
View from above satellite
View from above satellite

Ground track
Ground track

The orbit data is extracted from the following two-line orbital elements,

1 21809U 91076E   16138.83661605 0.00000250  00000-0  95626-4 0    09
2 21809  63.3600  39.1836 0713000  18.0000 342.0000 13.41268109    04
Epoch (UTC): 17 May 2016 20:04:43
Eccentricity: 0.0713000
inclination: 63.3600°
perigee height: 571 km
apogee height: 1638 km
right ascension of ascending node: 39.1836°
argument of perigee: 18.0000°
revolutions per day: 13.41268109
mean anomaly at epoch: 342.0000°
orbit number at epoch: 0

The dashed part of the orbit path shows where the satellite is in the earth's shadow,  

DLR